Flag for India Weather past 2 weeks in Kapurthala, Punjab, India

Now
81 °F

Fog.


Feels Like: 88 °F
Forecast: 72 / 96 °F
Wind: No wind

Location: Amritsar Airport

Current Time: Sep 19, 2014 at 1:53:06 AM

Latest Report: Sep 19, 2014 at 1:00 AM


Visibility: 2 mi

Pressure: 29.68 "Hg

Humidity: 94%

Dew point: 79 °F

Location of KapurthalaLocation

Historic Weather in Kapurthala — Graph

°F

Kapurthala temperature yesterday

Maximum temperature yesterday: 95 °F (at 3:00 PM)
Minimum temperature yesterday: 75 °F (at 6:30 AM)
Average temperature yesterday: 86 °F

Past Weeks' High & Low Weather Summary

 TemperatureHumidityPressure
High95 °F (Sep 18, 3:00 PM)100% (Sep 4, 12:30 AM)29.80 "Hg (Sep 4, 12:30 AM)
Low72 °F (Sep 17, 6:00 AM)49% (Sep 15, 3:30 PM)29.42 "Hg (Sep 5, 8:00 PM)
Average82 °F86%29.66 "Hg
* Reported Sep 4 12:30 AM — Sep 19 12:30 AM, Kapurthala, Weather by CustomWeather, © 2014

Note: Actual official high and low records may vary slightly from our data, if they occured in-between our weather recording intervals... More about our weather records

Advertising

Kapurthala weather history for previous 24 hours

 ConditionsComfort  
Time TempWeatherWind HumidityBarometerVisibility
12:30 AM
Sep 19
81 °FFog.No wind94%29.68 "Hg2 mi
12:00 AM82 °FFog.No wind89%29.68 "Hg2 mi
11:30 PM
Sep 18
82 °FFog.No wind89%29.68 "Hg2 mi
11:00 PM82 °FFog.No wind89%29.68 "Hg2 mi
10:30 PM84 °FFog.No wind79%29.68 "Hg2 mi
10:00 PM84 °FFog.No wind79%29.68 "Hg2 mi
9:30 PM84 °FFog.No wind79%29.68 "Hg2 mi
9:00 PM86 °FHaze.No wind70%29.65 "Hg2 mi
8:30 PM88 °FHaze.No wind66%29.65 "Hg2 mi
8:00 PM88 °FHaze.No wind62%29.65 "Hg2 mi
6:30 PM90 °FHaze.No wind55%29.65 "Hg3 mi
6:00 PM91 °FHaze.No wind52%29.65 "Hg3 mi
5:30 PM91 °FHaze.No wind52%29.65 "Hg3 mi
5:00 PM93 °FHaze.3 mph53%29.65 "Hg3 mi
4:30 PM93 °FHaze.3 mph56%29.65 "Hg3 mi
4:00 PM93 °FHaze.3 mph56%29.65 "Hg3 mi
3:30 PM93 °FHaze.3 mph56%29.65 "Hg3 mi
3:00 PM95 °FScattered clouds.2 mph53%29.65 "Hg3 mi
2:30 PM93 °FScattered clouds.7 mph59%29.68 "Hg3 mi
2:00 PM93 °FScattered clouds.6 mph56%29.68 "Hg3 mi
1:30 PM93 °FScattered clouds.6 mph63%29.68 "Hg3 mi
1:00 PM93 °FScattered clouds.6 mph63%29.71 "Hg3 mi
12:30 PM91 °FScattered clouds.No wind67%29.71 "Hg3 mi
12:00 PM91 °FScattered clouds.No wind67%29.71 "Hg3 mi
11:30 AM90 °FScattered clouds.No wind71%29.74 "Hg3 mi
11:00 AM86 °FFog.No wind79%29.74 "Hg3 mi
10:30 AM86 °FFog.No wind79%29.74 "Hg3 mi
10:00 AM84 °FFog.No wind84%29.71 "Hg2 mi
9:30 AM84 °FFog.No wind89%29.71 "Hg2 mi
9:00 AM82 °FFog.No wind94%29.71 "Hg2 mi
8:30 AM81 °FFog.No wind100%29.68 "Hg1 mi
7:30 AM77 °FFog.No wind100%29.68 "Hg1 mi
6:30 AM75 °FFog.No wind100%29.65 "Hg1 mi
6:00 AM77 °FFog.No wind100%29.65 "Hg1 mi
5:30 AM77 °FFog.No wind100%29.62 "Hg1 mi
5:00 AM79 °FFog.2 mph100%29.62 "Hg1 mi
4:00 AM79 °FFog.5 mph100%29.62 "Hg1 mi
3:30 AM79 °FFog.3 mph100%29.62 "Hg1 mi
3:00 AM81 °FFog.2 mph100%29.62 "Hg1 mi
2:30 AM81 °FFog.3 mph100%29.65 "Hg1 mi
2:00 AM81 °FFog.3 mph94%29.65 "Hg1 mi
1:30 AM81 °FFog.3 mph94%29.65 "Hg1 mi
1:00 AM81 °FFog.3 mph94%29.65 "Hg1 mi
Weather by CustomWeather, © 2014

See weather overviewHow to use our weather pages